Regional Weather Roundup
Issued by NWS

Home | Current Version | Previous Version | Text Only | Print | Product List | Glossary Off
Versions: 1 2 3 4 5 6 7 8 9 10 11 12 13 14 15 16 17 18 19 20 21 22 23 24 25 26 27 28 29 30 31 32 33 34 35 36 37 38 39 40 41 42 43 44 45 46 47 48 49 50

707
ASUS43 KOAX 172302
RWRNE

WEATHER ROUNDUP FOR NEBRASKA
NATIONAL WEATHER SERVICE OMAHA NE
500 PM CST SUN DEC 17 2017

NOTES: SATELLITE DATA IS BEING USED TO AUGMENT CLOUD COVER ABOVE
       12000 FEET.
       "FAIR" INDICATES FEW OR NO CLOUDS BELOW 12,000 FEET WITH NO
       SIGNIFICANT WEATHER AND/OR OBSTRUCTIONS TO VISIBILITY.


NEZ001>004-019>022-054>056-180000-
NEBRASKA PANHANDLE

CITY           SKY/WX    TMP DP  RH WIND       PRES   REMARKS
SCOTTSBLUFF    CLEAR     46  17  31 W20G30    29.84R
ALLIANCE       CLEAR     41  26  55 S3        29.83F
CHADRON        PTCLDY    42  25  50 SW7       29.82S
GORDON         FAIR      40  27  60 CALM      29.83S
KIMBALL        CLEAR     39  26  60 SW8       29.87S WCI  33
SIDNEY         CLEAR     39  26  59 SW9       29.88S WCI  33
$$

NEZ057>060-069>072-079>082-180000-
SOUTHWEST NEBRASKA

CITY           SKY/WX    TMP DP  RH WIND       PRES   REMARKS
NORTH PLATTE   PTCLDY    38  31  76 CALM      29.93F
IMPERIAL       CLEAR     38  29  70 S7        29.93S WCI  33
LEXINGTON      CLOUDY    40  31  71 CALM      29.96S
MCCOOK         PTCLDY    38  30  73 W6        29.96S WCI  33
OGALLALA       CLEAR     41  29  61 CALM      29.90F
$$

NEZ005>010-023>029-035>040-094-180000-
NORTH CENTRAL NEBRASKA

CITY           SKY/WX    TMP DP  RH WIND       PRES   REMARKS
VALENTINE      CLOUDY    40  29  64 S6        29.89F
AINSWORTH      CLOUDY    38  30  73 SW8       29.91S WCI  32
BROKEN BOW     CLOUDY    37  31  78 W3        29.94S
O`NEILL        CLOUDY    38  29  69 CALM      29.95R
ORD            CLOUDY    39  28  64 CALM      29.94S
THEDFORD       CLEAR     36  30  79 S5        29.92S WCI  32
$$

NEZ041-046>049-061>064-073>077-083>087-180000-
SOUTH CENTRAL NEBRASKA

CITY           SKY/WX    TMP DP  RH WIND       PRES   REMARKS
GRAND ISLAND   CLOUDY    38  30  73 N5        29.97S WCI  34
AURORA         PTCLDY    38  29  67 N5        29.96S WCI  35
HASTINGS       CLOUDY    40  30  67 NW10      29.97S WCI  33
HEBRON         CLEAR     40  31  70 CALM      29.97F
HOLDREGE       CLOUDY    39  32  73 NW5       29.96F
KEARNEY        CLOUDY    39  30  70 N6        29.97S WCI  35
YORK           PTCLDY    37  28  70 N3        29.97S
$$

NEZ011>018-030>034-042>045-180000-
NORTHEAST NEBRASKA

CITY           SKY/WX    TMP DP  RH WIND       PRES   REMARKS
NORFOLK        CLOUDY    35  25  66 NE7       29.96R WCI  29
ALBION         CLOUDY    37  28  71 CALM      29.96S
BLAIR          MOCLDY    32  28  85 N3        29.98R FOG
COLUMBUS       CLOUDY    38  28  67 N5        29.98R WCI  34
FREMONT        CLEAR     32  28  83 CALM      29.99R
TEKAMAH        PTCLDY    33  26  75 SE6       30.00R WCI  28
WAYNE          MOCLDY    34  29  81 CALM      29.96R
$$

NEZ050>053-065>068-078-088>093-180000-
SOUTHEAST NEBRASKA

CITY           SKY/WX    TMP DP  RH WIND       PRES   REMARKS
LINCOLN        CLOUDY    34  28  79 NE5       30.00S WCI  30
OMAHA EPPLEY   MOCLDY    30  24  78 NW8       30.00R WCI  22
BEATRICE       CLEAR     37  33  87 E3        29.98S FOG
FALLS CITY     CLOUDY    39  36  89 N5        29.99S
NEBRASKA CITY  CLOUDY    34  34 100 W5        30.00S FOG     WCI  30
PLATTSMOUTH    PTCLDY    34  32  93 CALM      29.99S FOG
$$

NEZ044-045-051>053-067-180000-
OMAHA AREA

CITY           SKY/WX    TMP DP  RH WIND       PRES   REMARKS
OMAHA EPPLEY   MOCLDY    30  24  78 NW8       30.00R WCI  22
BLAIR          MOCLDY    32  28  85 N3        29.98R FOG
FREMONT        CLEAR     32  28  83 CALM      29.99R
MILLARD        CLEAR     35  28  78 NW5       30.00R WCI  31
OFFUTT AFB     PTCLDY    33  28  80 CALM      29.99R
PLATTSMOUTH    PTCLDY    34  32  93 CALM      29.99S FOG
WAHOO          FAIR      31  24  75 E3        29.99S
$$




USA.gov is the U.S. government's official web portal to all federal, state and local government web resources and services.